COSMOS 736

Satellite information

Favourite Embed

Satellite Type and Status

PAYLOADIN ORBIT

Key statistics

Satellite COSMOS 736 at a glance.

Uptime

18366

Days in orbit

Revolutions

≈ 12.5

Per day

Orbit

LEO

Low Earth Orbit

Inclination

74.0

Latest

Satellite identification and parameters

Extended collection of information and parameters for COSMOS 736.

Object identification

Identified? True

Debris? False

Object name: COSMOS 736

International designator: 1975-045E

Object number (NORAD): 7825

Object ID (CCSDS): 7825

Country: COMMONWEALTH OF INDEPENDENT STATES (CIS)

Current information (Y/N): Y

RCS size: MEDIUM

Orbital parameters

Period: 115.488 minutes

Inclination: 74.0153 deg

SMA: 7855.693 km

Apoapsis: 1485.964 km

Periapsis: 1469.153 km

RAAN: 103.4133 deg

Eccentricy: 0.00107002

Argument of periapsis: 195.4785 deg

Mean anomaly: 270.7356 deg

Mean motion: 12.46883796 rev/day

Mean motion (dot): 0.00000012 rev/day2

B* drag term: 0.00018760369 1/REarth

Two-line elements (TLE)

Creation date: Sept. 8, 2025, 3:16 a.m.

Reference frame: TEME

Reference center: EARTH

Epoch: Sept. 7, 2025, 9:52 p.m. UTC

TLE line 0: 0 COSMOS 736

TLE line 1: 1 07825U 75045E 25250.91155236 .00000012 00000-0 18760-3 0 9997

TLE line 2: 2 07825 74.0153 103.4133 0010700 195.4785 270.7356 12.46883796288750

Live tracking on map

Real-time ground track for satellite COSMOS 736.

In-orbit conjunctions

A list of the most updated potential collisions computed for object COSMOS 736.

Target Orbit TCA Probability of collision Miss distance Type
DELTA 1 DEB MEO 2025-04-12 13:41:45 0.0003651173 356.0 (m) DEBRIS
COSMOS 1723 LEO 2024-09-22 22:59:34 0.0001715331 117.0 (m) PAYLOAD
SL-14 R/B LEO 2024-08-11 12:23:51 0.000102135 85.0 (m) ROCKET BODY
COSMOS 1057 LEO 2024-06-06 17:10:46 0.02241838 51.0 (m) PAYLOAD

Associated space launch

Military communications satellites

COSMOS 736 was lifted into orbit during the mission ‘Kosmos-3M | Strela-1M 89-96’, on board a Kosmos-3M space rocket.

The launch took place on May 28, 1975, 12:25 a.m. from 132/1 (132L).

For more information about the launch, click the button.

Launch to space Kosmos-3M | Strela-1M 89-96
Kosmos-3M | Strela-1M 89-96

Agency: N/A

Status: Launch Successful

Launch date: May 28, 1975, 12:25 a.m. UTC

Rocket: Kosmos-3M

Launch pad: 132/1 (132L)

Location: Plesetsk Cosmodrome, Russian Federation

...

Latest news about this satellite

There are no fresh news available about this satellite. Check back as we update our databases every day.


Newsletter sign-up

Weekly statistics, charts and insights to help you stay on top of the space industry.